This is the latest recevied weather packets stored in our database for station/object W9KHP-1. If no packets are shown the sender has not sent any weather packets the latest 10 day(s).
| Time | Temp. | Humidity | Pressure | Rain* | Wind** | Luminosity | Snow |
|---|---|---|---|---|---|---|---|
| 1777944751 | 22.78° C | 50% | 1008.1 hPa | 0 mm | - | 0 W/m² | - |
| 1777944449 | 22.78° C | 51% | 1008.2 hPa | 0 mm | - | 0 W/m² | - |
| 1777944146 | 22.78° C | 50% | 1008.3 hPa | 0 mm | - | 0 W/m² | - |
| 1777943841 | 22.78° C | 49% | 1008.3 hPa | 0 mm | - | 0 W/m² | - |
| 1777943539 | 22.78° C | 50% | 1007.9 hPa | 0 mm | - | 0 W/m² | - |
| 1777943234 | 22.78° C | 49% | 1008 hPa | 0 mm | - | 0 W/m² | - |
| 1777942931 | 22.78° C | 49% | 1007.9 hPa | 0 mm | - | 0 W/m² | - |
| 1777942627 | 22.78° C | 48% | 1007.7 hPa | 0 mm | - | 0 W/m² | - |
| 1777942325 | 23.33° C | 48% | 1007.6 hPa | 0 mm | - | 1 W/m² | - |
| 1777942021 | 23.33° C | 48% | 1007.7 hPa | 0 mm | - | 1 W/m² | - |
| 1777941718 | 23.89° C | 47% | 1007.6 hPa | 0 mm | - | 2 W/m² | - |
| 1777941415 | 23.89° C | 46% | 1007.5 hPa | 0 mm | - | 3 W/m² | - |
| 1777941113 | 23.89° C | 46% | 1007.3 hPa | 0 mm | - | 5 W/m² | - |
| 1777940809 | 23.89° C | 45% | 1007.3 hPa | 0 mm | - | 8 W/m² | - |
| 1777940507 | 23.89° C | 44% | 1007.3 hPa | 0 mm | - | 13 W/m² | - |
| 1777940204 | 23.89° C | 45% | 1007.3 hPa | 0 mm | - | 16 W/m² | - |
| 1777939901 | 23.89° C | 46% | 1007.1 hPa | 0 mm | - | 18 W/m² | - |
| 1777939598 | 23.89° C | 46% | 1007.2 hPa | 0 mm | - | 20 W/m² | - |
| 1777939296 | 23.89° C | 46% | 1007.3 hPa | 0 mm | - | 22 W/m² | - |
| 1777938992 | 23.89° C | 47% | 1007.2 hPa | 0 mm | - | 31 W/m² | - |
| 1777938689 | 23.89° C | 47% | 1007.4 hPa | 0 mm | - | 21 W/m² | - |
| 1777938386 | 23.89° C | 47% | 1007.5 hPa | 0 mm | - | 22 W/m² | - |
| 1777938084 | 24.44° C | 47% | 1007.5 hPa | 0 mm | - | 39 W/m² | - |
| 1777937779 | 24.44° C | 46% | 1007.8 hPa | 0 mm | - | 44 W/m² | - |
| 1777937475 | 24.44° C | 46% | 1008.2 hPa | 0 mm | - | 46 W/m² | - |
* Rain latest hour (hover to see other rain measurements)
** Current wind speed in m/s (hover to see current wind gust speed)